Weather History for St-Nazaire, France

Change the Weather History Date:

Tuesday, October 23, 2012

  Actual Average Record
Temperature  
Mean Temperature 55 °F -  
Max Temperature 62 °F 55 °F 69 °F (2004)
Min Temperature 48 °F 44 °F 33 °F (2003)
Degree Days  
Heating Degree Days 10    
Growing Degree Days 5 (Base 50)    
Moisture  
Dew Point 53 °F    
Average Humidity 97    
Maximum Humidity 100    
Minimum Humidity 82    
Precipitation  
Precipitation 0.00 in - - ()
Sea Level Pressure  
Sea Level Pressure 30.16 in    
Wind  
Wind Speed 2 mph ()    
Max Wind Speed 7 mph    
Max Gust Speed -    
Visibility 2.8 miles    
Events Fog    
Averages and records for this station are not official NWS values.
T = Trace of Precipitation, MM = Missing Value Source: Averaged Metar Reports

Daily Weather History Graph

Daily Weather History Graph

Search for Another Location

Airport:

Trip Planner

Search our weather history database for the weather conditions in past years. The results will help you decide how hot, cold, wet, or windy it might be!

Date:

Astronomy

Oct. 23, 2012 Rise Set
Actual Time 8:39 AM CEST 7:06 PM CEST
Civil Twilight 8:07 AM CEST 7:37 PM CEST
Nautical Twilight 7:31 AM CEST 8:13 PM CEST
Astronomical Twilight 6:56 AM CEST 8:48 PM CEST
Moon 4:03 PM CEST (10/23) 1:50 AM CEST (10/23)
Length of Visible Light 11h 29m
Length of Day
10h 26m
Waxing Gibbous, 64% of the Moon is Illuminated
Oct 23
Waxing Gibbous
Oct 29
Full
Nov 7
Last Quarter
Nov 13
New
Nov 20
First Quarter

Hourly Weather History & Observations

Time (CEST) Temp. Dew Point Humidity Pressure Visibility Wind Dir Wind Speed Gust Speed Precip Events Conditions
12:00 AM 53.6 °F 53.6 °F 100% 30.15 in 0.1 mi Calm Calm - N/A Fog Fog
12:30 AM 53.6 °F 51.8 °F 94% 30.15 in 0.1 mi NNE 1.2 mph - N/A Fog Patches of Fog
1:00 AM 48.2 °F 48.2 °F 100% 30.15 in 0.1 mi Calm Calm - N/A Fog Fog
1:30 AM 48.2 °F 48.2 °F 100% 30.15 in 0.0 mi East 3.5 mph - N/A Fog Fog
2:00 AM 50.0 °F 50.0 °F 100% 30.15 in 0.1 mi Calm Calm - N/A Fog Fog
2:30 AM 51.8 °F 51.8 °F 100% 30.15 in 0.1 mi East 1.2 mph - N/A Fog Fog
3:00 AM 53.6 °F 51.8 °F 94% 30.18 in 0.1 mi Calm Calm - N/A Fog Fog
3:30 AM 53.6 °F 51.8 °F 94% 30.18 in 0.1 mi ENE 1.2 mph - N/A Fog Fog
4:00 AM 51.8 °F 51.8 °F 100% 30.15 in 0.1 mi ENE 2.3 mph - N/A Fog Fog
4:30 AM 51.8 °F 51.8 °F 100% 30.15 in 0.1 mi NE 1.2 mph - N/A Fog Fog
5:00 AM 50.0 °F 50.0 °F 100% 30.15 in 0.1 mi NE 1.2 mph - N/A Fog Fog
5:30 AM 50.0 °F 50.0 °F 100% 30.15 in 0.2 mi North 1.2 mph - N/A Fog Fog
6:00 AM 50.0 °F 50.0 °F 100% 30.18 in 0.1 mi Variable 1.2 mph - N/A Fog Fog
6:30 AM 50.0 °F 50.0 °F 100% 30.18 in - NNE 2.3 mph - N/A Fog Fog
7:00 AM 50.0 °F 50.0 °F 100% 30.18 in 0.2 mi ENE 3.5 mph - N/A Fog Fog
7:30 AM 50.0 °F 50.0 °F 100% 30.18 in 0.2 mi NE 3.5 mph - N/A Fog Fog
8:00 AM 48.2 °F 48.2 °F 100% 30.18 in 0.2 mi NNE 3.5 mph - N/A Fog Fog
8:30 AM 48.2 °F 48.2 °F 100% 30.18 in 0.2 mi NNE 2.3 mph - N/A Fog Fog
9:00 AM 48.2 °F 48.2 °F 100% 30.18 in 0.1 mi Variable 2.3 mph - N/A Fog Fog
9:30 AM 48.2 °F 48.2 °F 100% 30.21 in 0.1 mi Variable 2.3 mph - N/A Fog Fog
10:00 AM 50.0 °F 50.0 °F 100% 30.21 in 0.1 mi ENE 3.5 mph - N/A Fog Fog
10:30 AM 50.0 °F 50.0 °F 100% 30.21 in 0.1 mi ENE 4.6 mph - N/A Fog Fog
11:00 AM 50.0 °F 50.0 °F 100% 30.21 in 0.2 mi Variable 3.5 mph - N/A Fog Fog
11:30 AM 51.8 °F 51.8 °F 100% 30.21 in 0.6 mi Variable 2.3 mph - N/A Fog Fog
12:00 PM 53.6 °F 53.6 °F 100% 30.21 in - Variable 1.2 mph - N/A   Mist
12:30 PM 55.4 °F 55.4 °F 100% 30.21 in 6.2 mi Variable 2.3 mph - N/A   Overcast
1:00 PM 57.2 °F 57.2 °F 100% 30.21 in 6.2 mi NE 4.6 mph - N/A   Overcast
1:30 PM 57.2 °F 57.2 °F 100% 30.18 in 6.2 mi ENE 5.8 mph - N/A   Overcast
2:00 PM 57.2 °F 57.2 °F 100% 30.18 in 6.2 mi NE 6.9 mph - N/A   Overcast
2:30 PM 59.0 °F 57.2 °F 94% 30.18 in 6.2 mi ENE 5.8 mph - N/A   Overcast
3:00 PM 59.0 °F 57.2 °F 94% 30.18 in 6.2 mi NE 4.6 mph - N/A   Overcast
3:30 PM 60.8 °F 57.2 °F 88% 30.15 in 6.2 mi NE 5.8 mph - N/A   Overcast
4:00 PM 60.8 °F 57.2 °F 88% 30.15 in 6.2 mi NNE 5.8 mph - N/A   Mostly Cloudy
4:30 PM 62.6 °F 57.2 °F 82% 30.15 in 6.2 mi NNE 4.6 mph - N/A   Mostly Cloudy
5:00 PM 62.6 °F 59.0 °F 88% 30.15 in 6.2 mi ENE 5.8 mph - N/A   Scattered Clouds
6:00 PM 62.6 °F 57.2 °F 82% 30.15 in 6.2 mi East 4.6 mph - N/A   Mostly Cloudy
6:30 PM 60.8 °F 57.2 °F 88% 30.15 in 6.2 mi NE 4.6 mph - N/A   Scattered Clouds
7:00 PM 60.8 °F 57.2 °F 88% 30.15 in 6.2 mi NNE 3.5 mph - N/A   Unknown
7:30 PM 59.0 °F 57.2 °F 94% 30.15 in 6.2 mi North 3.5 mph - N/A   Unknown
8:00 PM 59.0 °F 57.2 °F 94% 30.15 in 6.2 mi NNW 2.3 mph - N/A   Unknown
8:30 PM 57.2 °F 55.4 °F 94% 30.15 in 6.2 mi North 3.5 mph - N/A   Unknown
9:00 PM 55.4 °F 53.6 °F 94% 30.12 in 5.6 mi North 3.5 mph - N/A   Mist
9:30 PM 57.2 °F 55.4 °F 94% 30.12 in 4.3 mi North 3.5 mph - N/A   Mist
10:00 PM 55.4 °F 55.4 °F 100% 30.12 in 3.7 mi North 2.3 mph - N/A Fog Fog
10:30 PM 55.4 °F 55.4 °F 100% 30.12 in 3.7 mi North 3.5 mph - N/A Fog Fog
11:00 PM 55.4 °F 53.6 °F 94% 30.12 in 3.7 mi NNW 3.5 mph - N/A   Unknown
11:30 PM 53.6 °F 53.6 °F 100% 30.12 in - North 4.6 mph - N/A   Light Drizzle